Location: *
(46.1866°S, 178.5290°W)
Time: 10:25:02
(UTC+00:00)

ADEOS - Pass Details

Date: 19 May 2021
Orbit: 792 x 795 km, 98.9° (Epoch: 14 June)

Event Time Altitude Azimuth Distance (km) Brightness Sun altitude
Rises 05:17:19 0° 168° (SSE) 3,340 6.5 -8.6°
Reaches altitude 10° 05:19:40 10° 169° (S) 2,403 5.8 -9.0°
Maximum altitude 05:24:58 73° 252° (WSW) 846 3.9 -9.9°
Drops below altitude 10° 05:30:12 10° 336° (NNW) 2,373 6.7 -10.8°
Sets 05:32:31 0° 337° (NNW) 3,295 7.4 -11.1°
